Tracking 30703 objects as of 13-Jun-2025
HD Live streaming from Space Station
objects crossing your sky now

STARLINK-30450

Track STARLINK-30450 now!
10-day predictions
STARLINK-30450 is classified as:


NORAD ID: 57913
Int'l Code: 2023-147A
Perigee: 565.3 km
Apogee: 567.1 km
Inclination: 43.0 °
Period: 95.8 minutes
Semi major axis: 6937 km
RCS: Unknown
Launch date: September 24, 2023
Source: United States (US)
Launch site: AIR FORCE EASTERN TEST RANGE (AFETR)
Your satellite tracking list
Your tracking list is empty




NASA's NSSDC Master Catalog

Two Line Element Set (TLE):
1 57913U 23147A   25163.85853480  .00000327  00000-0  39310-4 0  9992
2 57913  43.0048 352.6491 0001314 266.1765  93.8927 15.02537104 95996
Source of the keplerian elements: AFSPC